Regional Weather Roundup
Issued by NWS

Home | Current Version | Previous Version | Text Only | Print | Product List | Glossary Off
Versions: 1 2 3 4 5 6 7 8 9 10 11 12 13 14 15 16 17 18 19 20 21 22 23 24 25 26 27 28 29 30 31 32 33 34 35 36 37 38 39 40 41 42 43 44 45 46 47 48 49 50

014
ASUS44 KJAN 292010
RWRMS

MISSISSIPPI HOURLY WEATHER ROUNDUP
NATIONAL WEATHER SERVICE JACKSON MS
300 PM CDT TUE JUL 29 2014

NOTE: "FAIR: INDICATES FEW OR NO CLOUDS BELOW 12,000 FEET WITH NO
SIGNIFICANT WEATHER AND/OR OBSTRUCTIONS TO VISIBILITY.

MSZ001>002-007>008-010>013-018>021-025>028-034>036-292100-
NORTHWEST MISSISSIPPI

CITY           SKY/WX    TMP DP  RH WIND       PRES   REMARKS
CLARKSDALE     FAIR      81  59  47 N13       30.12S
CLEVELAND      FAIR      81  64  56 N13       30.09F
GREENWOOD      SUNNY     83  61  47 N9        30.09S
GREENVILLE     MOSUNNY   85  62  46 N9        30.09S
GRENADA        FAIR      81  57  44 N10       30.09F
OLIVE BRANCH   MOSUNNY   77  57  50 NE13      30.12F
OXFORD         FAIR      77  55  47 N8        30.12F
TUNICA         CLEAR     79  54  41 N9        30.12S
$$

MSZ003>006-009-014>017-022>024-029>033-037>039-292100-
NORTHEAST MISSISSIPPI

CITY           SKY/WX    TMP DP  RH WIND       PRES   REMARKS
BELMONT        FAIR      75  55  48 N7        30.11R
COLUMBUS AFB   MOSUNNY   80  57  45 NW13G22   30.07F
CORINTH        FAIR      77  54  44 N3        30.11S
GOLDN TRIANGLE PTSUNNY   82  61  47 NW9G18    30.08F
STARKVILLE     FAIR      81  57  44 N10       30.07F
TUPELO         MOSUNNY   78  54  43 NE9       30.09F
$$

MSZ040-058-292100-
CENTRAL MISSISSIPPI

CITY           SKY/WX    TMP DP  RH WIND       PRES   REMARKS
JACKSON INTL   PTSUNNY   86  65  49 N10       30.05F
JACKSON HAWKNS PTSUNNY   87  64  46 NW8       30.06F
MERIDIAN KEY   CLOUDY    83  63  50 NW7       30.03F
MERIDIAN NAS   PTSUNNY   85  63  47 N12       30.04F
RAYMOND        FAIR      84  79  84 NW6       30.06S HX  96
VICKSBURG      SUNNY     89  63  41 N8        30.06F HX  90
$$

MSZ059>079-292100-
SOUTH MISSISSIPPI

CITY           SKY/WX    TMP DP  RH WIND       PRES   REMARKS
BROOKHAVEN     FAIR      86  64  48 NW3       30.07F
COLUMBIA       FAIR      90  64  43 NW9       30.02F HX  91
HATTIESBURG    SUNNY     90  61  37 NE12      30.03F HX  90
MCCOMB         MOSUNNY   87  61  41 NE6       30.05F
NATCHEZ        MOSUNNY   86  64  48 N7        30.07F
PINE BELT      SUNNY     90  63  40 NW3       30.05F HX  90
$$

MSZ080>082-292100-
COASTAL MISSISSIPPI

CITY           SKY/WX    TMP DP  RH WIND       PRES   REMARKS
BAY ST LOUIS   MOSUNNY  N/A N/A N/A VRB5      30.02F
BILOXI         PTSUNNY   88  63  43 N5        30.01F
PASCAGOULA     MOSUNNY   88  64  44 CALM      30.01F
GULFPORT       MOSUNNY   93  62  35 N8        30.00F HX  93
$$



USA.gov is the U.S. government's official web portal to all federal, state and local government web resources and services.